SL-14 R/B, 27061

Orbit data source: Space-Track

SL-14 R/B, 27061 is space debris in LEO originally from a launch on Fri, 28 Dec 2001 UTC launched from the Plesetsk Missile And Space Complex (PKMTR). Debris objects in space refer to the collection of defunct objects orbiting the Earth. Examples of debris include non-operational satellites, rocket bodies, and fragments generated from explosions, collisions, or faulty payload assembly.

Loading next visibility...
Identifier
27061, 2001-058G
Orbit
LEO
Country
Flag of CISCIS
Related business
Manufacturer
Yuzhnoe
Mission
Spacecraft
Bus & Motor
S5M, Unknown motor
Mass
1,600 kg wet, 1,600 kg dry
Launch date (UTC)
2001-12-28 (24 years ago)
Launch vehicle
Unknown
Launch site
Plesetsk Missile And Space Complex (PKMTR)
Object type
Payload
Rocket body
Debris
Shape & HBR
Cyl, 1.4 m
Radar Cross Section
7.351 m², Large (>1 m²)

Expand to show TLE details & history
Last TLE update: 4 hours ago

TLE from 4 hours ago
0 SL-14 R/B
1 27061U 01058G   26127.79243659  .00000014  00000-0  23831-4 0  9999
2 27061  82.5432 319.8305 0043049 203.1418 167.7186 12.53956769114960
Epoch: 2026-05-07T19:01Z
TLE epoch observation values (Epoch: 2026-05-07T19:01:06.521Z)
Latitude
10.82455°
Longitude
170.34684°
Altitude
1,482.89 km
Speed
7.108 km/s
True Right ascension
21h 25m 01s
True Declination
10° 46' 02"
Sunlit
Object was in daylight at epoch
Visualization orbit readout
Latitude
Unknown
Longitude
Unknown
Altitude
Unknown
Speed
Unknown
Apparent Right ascension
Unknown
Apparent Declination
Unknown
Sunlit
N/A
Visualization observer readout
Local Sidereal Time
07:19:18
Azimuth
Unknown
Elevation
Unknown
Doppler factor
Unknown
Orbital elements
Apogee altitude
1,479.001 km
Perigee altitude
1,411.643 km
Semi-major axis
7,823.459 km
Eccentricity
0.0043
Inclination
82.5432°
RAAN
319.8305°
Arg. of periapsis
203.1418°
True anomaly
167.82298°
Mean anomaly
167.7186°
Eccentric anomaly
167.77085°
Mean motion
3.1365 °/min
Orbital period
114.78 mins
BSTAR
0.000023831
Loading maneuver chart data...
Computing Atmospheric mass density...
Loading historical data...
Loading historical data...
Loading historical data...
Loading historical data...
Loading historical data...
Loading historical data...
Loading historical data...

Documentation

Showing up to 5 results
|